User: anonymous   Login
Location: Eimen
(51.8766°N, 9.7806°E)
Time: 16:00:50
(UTC+00:00)
Language:

Cosmos 468 Rocket - Orbit

View from above orbital plane
View from above orbital plane
View from above satellite
View from above satellite

Ground track
Ground track

The orbit data is extracted from the following two-line orbital elements,

1 05707U 71114B   24201.82178290  .00000799  00000-0  26263-3 0  9996
2 05707  74.0288 346.5732 0023877 143.9670 216.3100 14.39715948755075
Epoch (UTC): 19 July 2024 19:43:22
Eccentricity: 0.0023877
inclination: 74.0288°
perigee height: 742 km
apogee height: 776 km
right ascension of ascending node: 346.5732°
argument of perigee: 143.9670°
revolutions per day: 14.39715948
mean anomaly at epoch: 216.3100°
orbit number at epoch: 75507

The dashed part of the orbit path shows where the satellite is in the earth's shadow,  

DLR